Regional Weather Roundup
Issued by NWS

Home | Current Version | Previous Version | Graphics & Text | Print | Product List | Glossary On
Versions: 1 2 3 4 5 6 7 8 9 10 11 12 13 14 15 16 17 18 19 20 21 22 23 24 25 26 27 28 29 30 31 32 33 34 35 36 37 38 39 40 41 42 43 44 45
000
ASUS45 KBOU 251807
RWRCO

WEATHER ROUNDUP FOR COLORADO
NATIONAL WEATHER SERVICE DENVER/BOULDER CO
1100 AM MST THU DEC 25 2014

NOTE: "FAIR" INDICATES FEW OR NO CLOUDS BELOW 12000 FEET WITH NO
SIGNIFICANT WEATHER AND/OR OBSTRUCTIONS TO VISIBILITY.

COZ001>005-013-030-031-251900-
...NORTHWEST COLORADO...

CITY           SKY/WX    TMP DP  RH WIND       PRES   REMARKS
CRAIG          LGT SNOW  31  28  89 E7        29.50S FOG     WCI  24
HAYDEN         CLOUDY    27  23  86 CALM      29.49S
MEEKER         CLOUDY    33  27  78 CALM      29.49S
MOUNT WERNER   NOT AVBL
STEAMBOAT SPGS CLOUDY    25  20  83 CALM      29.48F
WALDEN         CLOUDY    30  21  69 SE5       29.47F WCI  25
$$

COZ006>008-011-251900-
...WEST CENTRAL VALLEYS...

CITY           SKY/WX    TMP DP  RH WIND       PRES   REMARKS
GRAND JUNCTION FLURRIES  33  29  85 W7        29.52R WCI  27
MONTROSE       CLOUDY    37  25  61 NW5G18    29.54S
EAGLE          NOT AVBL
RIFLE          LGT SNOW  28  24  85 CALM      29.53F FOG
DELTA          CLOUDY    40  29  62 S3        29.56S
NUCLA          CLOUDY    36  25  64 S18G29    29.58R
$$

COZ017>023-064>068-251900-
...SOUTHWEST COLORADO...

CITY           SKY/WX    TMP DP  RH WIND       PRES   REMARKS
DURANGO        LGT SNOW  31  23  72 VRB5      29.65R WCI  26
CORTEZ         CLOUDY    38  20  48 S15       29.61F
PAGOSA SPRINGS PTSUNNY   31  17  56 S6        29.65F WCI  25
TELLURIDE      LGT SNOW  26  20  77 SE7       29.57R WCI  18
WOLF CREEK PAS HVY SNOW  10   9  92 MISG      29.57F VSB 1/4
$$

COZ009-010-012-014-032>034-037-058>063-251900-
...CENTRAL COLORADO...

CITY           SKY/WX    TMP DP  RH WIND       PRES   REMARKS
ASPEN          PTSUNNY   29  22  75 N6        29.48F WCI  23
BUENA VISTA    SUNNY     30  12  47 SE3       29.53F
COPPER MTN     MOSUNNY   25  12  58 SE22      29.48F WCI  10
BERTHOUD PASS  PTSUNNY   16  10  79 MISG      29.53S
COTTONWOOD PAS MOSUNNY   28  12  50 SE7       29.52F WCI  21
GUNNISON       MOSUNNY   10   1  67 CALM      29.59F
KREMMLING      MOSUNNY   21  12  68 CALM      29.52F
LEADVILLE      MOSUNNY   19  11  70 S8        29.49F WCI   9
MONARCH PASS   PTSUNNY   18  12  79 SW20      29.63S WCI   1
SALIDA         SUNNY     37  13  38 S10G20    29.60F
SUNLIGHT       CLOUDY   N/A N/A N/A MISG      29.51S
WILKERSON PASS SUNNY     27  14  59 SW8       29.54F WCI  18
$$

COZ069>075-251900-
...SAN LUIS VALLEY/SANGRE DE CRISTO MOUNTAINS...

CITY           SKY/WX    TMP DP  RH WIND       PRES   REMARKS
ALAMOSA        SUNNY     36  15  42 SW29G40   29.61S
LA VETA PASS   NOT AVBL
SAGUACHE       SUNNY     19   9  63 CALM      29.63F
$$

COZ035-036-038>040-251900-
...NORTHERN COLORADO FRONT RANGE...

CITY           SKY/WX    TMP DP  RH WIND       PRES   REMARKS
DENVER INTL AP PTSUNNY   38  22  52 N9        29.48R
DMNS CITY PARK   N/A     38  18  44 N7G14     29.50R
AURORA         PTSUNNY   36  18  48 N8        29.49R
FRONT RANGE AP NOT AVBL
ERIE MUNI ARPT   N/A     42  19  40 N9        29.51R
BOULDER MUN AP CLOUDY    39  21  48 N9        29.52R
CENTENNIAL     PTSUNNY   39  19  44 N16       29.48R
BROOMFIELD     PTSUNNY   37  18  44 N17       29.50R
FORT COLLINS   CLOUDY    37  28  70 NE12      29.54R
LONGMONT       CLOUDY    43  24  46 N8        29.53R
$$

COZ041-046-047-076>085-087-088-251900-
...PIKES PEAK/PALMER DIVIDE AND SOUTHERN FOOTHILLS...

CITY           SKY/WX    TMP DP  RH WIND       PRES   REMARKS
COLO. SPRINGS  MOSUNNY   50  15  24 NE15      29.43F
A. F. ACADEMY  SUNNY     48  12  23 N10       29.42F
ELLICOTT       NOT AVBL
FALCON         SUNNY     46  17  30 E7        29.46S
FORT CARSON    SUNNY     52  16  24 SW21G33   29.39S
LIMON          SUNNY     49  17  28 NE7       29.43F
MONUMENT HILL  SUNNY     43  18  36 W7        29.45F
TRINIDAD       SUNNY     44  23  43 SW15      29.52F
$$

COZ042>045-048>051-090-091-251900-
...NORTHEAST COLORADO...

CITY           SKY/WX    TMP DP  RH WIND       PRES   REMARKS
GREELEY ARPT   CLOUDY    39  28  65 NE14      29.51R
AKRON          MOSUNNY   36  27  69 N18       29.45F
BURLINGTON     MOSUNNY   41  25  53 NE7       29.43S
WRAY           SUNNY     42  25  50 N12       29.45R
STERLING       PTSUNNY   37  32  81 NE8       29.48F
HOLYOKE        SUNNY     43  30  61 N16       29.47S
FORT MORGAN    CLOUDY    36  28  73 N20G25    29.48S
$$

COZ086-089-092>099-251900-
...SOUTHEAST COLORADO...

CITY           SKY/WX    TMP DP  RH WIND       PRES   REMARKS
PUEBLO         SUNNY     52  18  26 NW12G18   29.45F
LA JUNTA       MOSUNNY   55  22  27 W29G39    29.46F
LAMAR          MOSUNNY   59  22  24 SW18G30   29.45F
SPRINGFIELD      N/A     58  20  22 SW18G31   29.51F
$$


USA.gov is the U.S. government's official web portal to all federal, state and local government web resources and services.